Showing default

KSM1-D, 46907

Orbit data source: Space-Track

KSM1-D, 46907 is a payload satellite owned by Kleos Space (LU) in LEO that was launched on Sat, 07 Nov 2020 UTC via a PSLV-DL launch vehicle from the Sirharikota (SRI). Payload-class satellites include a variety of spacecraft equipped with specific instruments for various scientific and technological missions. These include communications satellites like Starlink; space stations such as the ISS; scientific satellites like the Hubble; Earth observation satellites from companies like Planet Labs, Umbra, and HawkEye 360; GPS; miniature CubeSats for education and research; and military/defense satellites.

Loading next visibility...
Identifier
46907, 2020-081C
Orbit
LEO
Country
Flag of UnknownUnknown / LUXE
Related business
Manufacturer
GOMSpace
Mission
Operational Commercial Sigint
Bus & Motor
CUBESAT 6U, Unknown motor
Mass
~10 kg wet, ~10 kg dry
Launch date (UTC)
2020-11-07 (5 years ago)
Launch vehicle
PSLV-DL
Launch site
Sirharikota (SRI)
Object type
Payload
Rocket body
Debris
Shape & HBR
Box, 0.1 m
Radar Cross Section
0.080 m², Medium (>0.1 m² and < 1m²)

Expand to show TLE details & history
Last TLE update: 15 hours ago

TLE from 15 hours ago
0 KSM1-D
1 46907U 20081C   25242.87877928  .00011564  00000-0  54640-3 0  9997
2 46907  36.8970  47.2696 0005750 327.5864  32.4529 15.18834302264841
Epoch: 2025-08-30T21:05Z
TLE epoch observation values (Epoch: 2025-08-30T21:05:26.529Z)
Latitude
-0.00003°
Longitude
111.60227°
Altitude
505.131 km
Speed
7.616 km/s
True Right ascension
03h 09m 04s
True Declination
0° 00' 00"
Sunlit
Object was in partial shadow at epoch
Visualization orbit readout
Latitude
Unknown
Longitude
Unknown
Altitude
Unknown
Speed
Unknown
Apparent Right ascension
Unknown
Apparent Declination
Unknown
Sunlit
N/A
Visualization observer readout
Local Sidereal Time
04:00:42
Azimuth
Unknown
Elevation
Unknown
Doppler factor
Unknown
Orbital elements
Apogee altitude
516.267 km
Perigee altitude
508.343 km
Semi-major axis
6,890.442 km
Eccentricity
0.00058
Inclination
36.897°
RAAN
47.2696°
Arg. of periapsis
327.5864°
True anomaly
32.48828°
Mean anomaly
32.4529°
Eccentric anomaly
32.47059°
Mean motion
3.79466 °/min
Orbital period
94.87 mins
BSTAR
0.0005464
Loading maneuver chart data...
Computing Atmospheric mass density...
Loading historical data...
Loading historical data...
Loading historical data...
Loading historical data...
Loading historical data...
Loading historical data...
Loading historical data...

Documentation

Showing up to 5 results
|